Time,TemperatureF,DewpointF,PressureIn,WindDirection,WindDirectionDegrees,WindSpeedMPH,WindSpeedGustMPH,Humidity,HourlyPrecipIn,Conditions,Clouds,dailyrainin,SoftwareType,DateUTC
2013-03-31 00:02:00,68.2,59.5,29.97,NE,45,2.0,3.0,74,0.00,,,0.00,meteohub,2013-03-31 05:02:00,
2013-03-31 00:08:00,67.6,59.7,29.97,NE,45,2.0,2.0,76,0.00,,,0.00,meteohub,2013-03-31 05:08:00,
2013-03-31 00:13:00,67.5,60.8,29.96,NE,45,3.0,3.0,79,0.00,,,0.00,meteohub,2013-03-31 05:13:00,
2013-03-31 00:18:00,67.8,61.7,29.96,NE,45,3.0,4.0,81,0.00,,,0.00,meteohub,2013-03-31 05:18:00,
2013-03-31 00:23:00,68.0,61.5,29.96,NE,45,2.0,4.0,80,0.00,,,0.00,meteohub,2013-03-31 05:23:00,
2013-03-31 00:28:00,68.2,61.7,29.96,NE,45,3.0,4.0,80,0.00,,,0.00,meteohub,2013-03-31 05:28:00,
2013-03-31 00:33:00,68.4,62.2,29.96,NE,45,4.0,4.0,81,0.00,,,0.00,meteohub,2013-03-31 05:33:00,
2013-03-31 00:38:00,68.5,62.4,29.96,East,90,6.0,6.0,81,0.00,,,0.00,meteohub,2013-03-31 05:38:00,
2013-03-31 00:43:00,68.5,62.8,29.96,NE,45,4.0,6.0,82,0.00,,,0.00,meteohub,2013-03-31 05:43:00,
2013-03-31 00:48:00,68.7,63.3,29.96,East,90,4.0,6.0,83,0.00,,,0.00,meteohub,2013-03-31 05:48:00,
2013-03-31 00:53:00,68.7,63.3,29.96,North,0,4.0,6.0,83,0.00,,,0.00,meteohub,2013-03-31 05:53:00,
2013-03-31 00:58:00,68.5,63.1,29.96,ENE,68,5.0,6.0,83,0.00,,,0.00,meteohub,2013-03-31 05:58:00,
2013-03-31 01:03:00,68.7,63.3,29.96,East,90,6.0,6.0,83,0.00,,,0.00,meteohub,2013-03-31 06:03:00,
2013-03-31 01:08:00,68.7,63.7,29.96,East,90,4.0,6.0,84,0.00,,,0.00,meteohub,2013-03-31 06:08:00,
2013-03-31 01:13:00,68.7,63.7,29.96,East,90,8.0,8.0,84,0.00,,,0.00,meteohub,2013-03-31 06:13:00,
2013-03-31 01:18:00,68.7,63.7,29.96,NE,45,6.0,9.0,84,0.00,,,0.00,meteohub,2013-03-31 06:18:00,
2013-03-31 01:23:00,68.5,63.5,29.96,NE,45,7.0,9.0,84,0.00,,,0.00,meteohub,2013-03-31 06:23:00,
2013-03-31 01:29:00,68.5,63.5,29.96,NE,45,5.0,11.0,84,0.00,,,0.00,meteohub,2013-03-31 06:29:00,
2013-03-31 01:34:00,68.4,63.3,29.96,North,0,7.0,11.0,84,0.00,,,0.00,meteohub,2013-03-31 06:34:00,
2013-03-31 01:39:00,68.2,63.1,29.96,NE,45,5.0,11.0,84,0.00,,,0.00,meteohub,2013-03-31 06:39:00,
2013-03-31 01:44:00,68.0,63.3,29.96,NE,45,5.0,7.0,85,0.00,,,0.00,meteohub,2013-03-31 06:44:00,
2013-03-31 01:49:00,68.0,63.3,29.96,NE,45,6.0,7.0,85,0.00,,,0.00,meteohub,2013-03-31 06:49:00,
2013-03-31 01:54:00,68.0,63.3,29.96,ENE,68,7.0,7.0,85,0.00,,,0.00,meteohub,2013-03-31 06:54:00,
2013-03-31 01:59:00,68.0,63.3,29.96,NE,45,6.0,8.0,85,0.00,,,0.00,meteohub,2013-03-31 06:59:00,
2013-03-31 02:04:00,67.8,63.5,29.96,NE,45,6.0,8.0,86,0.00,,,0.00,meteohub,2013-03-31 07:04:00,
2013-03-31 02:09:00,67.8,63.9,29.96,East,90,11.0,11.0,87,0.00,,,0.00,meteohub,2013-03-31 07:09:00,
2013-03-31 02:14:00,67.8,63.9,29.96,NNE,23,6.0,11.0,87,0.00,,,0.00,meteohub,2013-03-31 07:14:00,
2013-03-31 02:19:00,67.8,63.9,29.96,NE,45,4.0,11.0,87,0.00,,,0.00,meteohub,2013-03-31 07:19:00,
2013-03-31 02:24:00,67.6,64.0,29.96,East,90,4.0,11.0,88,0.00,,,0.00,meteohub,2013-03-31 07:24:00,
2013-03-31 02:29:00,67.5,63.9,29.95,North,0,4.0,11.0,88,0.00,,,0.00,meteohub,2013-03-31 07:29:00,
2013-03-31 02:34:00,67.5,63.9,29.96,NE,45,5.0,9.0,88,0.00,,,0.00,meteohub,2013-03-31 07:34:00,
2013-03-31 02:39:00,67.5,63.9,29.95,SE,135,3.0,9.0,88,0.00,,,0.00,meteohub,2013-03-31 07:39:00,
2013-03-31 02:45:00,67.3,63.7,29.95,East,90,4.0,8.0,88,0.00,,,0.00,meteohub,2013-03-31 07:45:00,
2013-03-31 02:50:00,67.1,63.7,29.95,NE,45,5.0,8.0,89,0.00,,,0.00,meteohub,2013-03-31 07:50:00,
2013-03-31 02:55:00,67.1,63.7,29.95,North,0,2.0,5.0,89,0.00,,,0.00,meteohub,2013-03-31 07:55:00,
2013-03-31 03:00:00,66.9,63.9,29.95,NE,45,4.0,5.0,90,0.00,,,0.00,meteohub,2013-03-31 08:00:00,
2013-03-31 03:05:00,66.9,63.9,29.94,NE,45,4.0,5.0,90,0.00,,,0.00,meteohub,2013-03-31 08:05:00,
2013-03-31 03:10:00,66.9,63.9,29.95,NE,45,4.0,4.0,90,0.00,,,0.00,meteohub,2013-03-31 08:10:00,
2013-03-31 03:15:00,67.1,64.4,29.94,NE,45,2.0,4.0,91,0.00,,,0.00,meteohub,2013-03-31 08:15:00,
2013-03-31 03:20:00,67.1,64.4,29.94,NE,45,2.0,5.0,91,0.00,,,0.00,meteohub,2013-03-31 08:20:00,
2013-03-31 03:25:00,67.3,64.6,29.94,North,0,4.0,5.0,91,0.00,,,0.00,meteohub,2013-03-31 08:25:00,
2013-03-31 03:30:00,67.5,64.8,29.93,NE,45,4.0,6.0,91,0.00,,,0.00,meteohub,2013-03-31 08:30:00,
2013-03-31 03:35:00,67.6,64.6,29.93,SE,135,5.0,7.0,90,0.00,,,0.00,meteohub,2013-03-31 08:35:00,
2013-03-31 03:40:00,67.6,64.6,29.93,NE,45,4.0,7.0,90,0.00,,,0.00,meteohub,2013-03-31 08:40:00,
2013-03-31 03:45:00,68.0,64.6,29.93,North,0,4.0,8.0,89,0.00,,,0.00,meteohub,2013-03-31 08:45:00,
2013-03-31 03:50:00,68.0,64.6,29.93,NE,45,4.0,8.0,89,0.00,,,0.00,meteohub,2013-03-31 08:50:00,
2013-03-31 03:55:00,68.2,64.4,29.93,NE,45,7.0,8.0,88,0.00,,,0.00,meteohub,2013-03-31 08:55:00,
2013-03-31 04:00:00,68.2,64.4,29.93,NE,45,2.0,10.0,88,0.00,,,0.00,meteohub,2013-03-31 09:00:00,
2013-03-31 04:05:00,68.2,64.4,29.93,NE,45,4.0,10.0,88,0.00,,,0.00,meteohub,2013-03-31 09:05:00,
2013-03-31 04:10:00,68.4,64.6,29.93,NE,45,4.0,7.0,88,0.00,,,0.00,meteohub,2013-03-31 09:10:00,
2013-03-31 04:15:00,68.4,64.6,29.93,NE,45,2.0,6.0,88,0.00,,,0.00,meteohub,2013-03-31 09:15:00,
2013-03-31 04:20:00,68.4,64.6,29.93,East,90,2.0,6.0,88,0.00,,,0.00,meteohub,2013-03-31 09:20:00,
2013-03-31 04:27:00,68.4,64.6,29.93,NE,45,4.0,7.0,88,0.00,,,0.00,meteohub,2013-03-31 09:27:00,
2013-03-31 04:32:00,68.5,64.8,29.93,North,0,2.0,7.0,88,0.00,,,0.00,meteohub,2013-03-31 09:32:00,
2013-03-31 04:37:00,68.5,64.8,29.93,East,90,2.0,7.0,88,0.00,,,0.00,meteohub,2013-03-31 09:37:00,
2013-03-31 04:42:00,68.5,64.8,29.92,East,90,4.0,7.0,88,0.00,,,0.00,meteohub,2013-03-31 09:42:00,
2013-03-31 04:47:00,68.7,64.8,29.92,East,90,2.0,7.0,87,0.00,,,0.00,meteohub,2013-03-31 09:47:00,
2013-03-31 04:52:00,68.5,64.6,29.92,East,90,5.0,7.0,87,0.00,,,0.00,meteohub,2013-03-31 09:52:00,
2013-03-31 04:57:00,68.5,64.6,29.92,South,180,5.0,7.0,87,0.00,,,0.00,meteohub,2013-03-31 09:57:00,
2013-03-31 05:02:00,68.5,64.6,29.92,NE,45,5.0,8.0,87,0.00,,,0.00,meteohub,2013-03-31 10:02:00,
2013-03-31 05:07:00,68.5,64.6,29.92,NE,45,5.0,8.0,87,0.00,,,0.00,meteohub,2013-03-31 10:07:00,
2013-03-31 05:12:00,68.5,64.6,29.92,SE,135,6.0,8.0,87,0.00,,,0.00,meteohub,2013-03-31 10:12:00,
2013-03-31 05:17:00,68.5,64.6,29.92,NE,45,7.0,7.0,87,0.00,,,0.00,meteohub,2013-03-31 10:17:00,
2013-03-31 05:22:00,68.5,64.6,29.92,East,90,4.0,11.0,87,0.00,,,0.00,meteohub,2013-03-31 10:22:00,
2013-03-31 05:28:00,68.4,64.4,29.92,NE,45,4.0,11.0,87,0.00,,,0.00,meteohub,2013-03-31 10:28:00,
2013-03-31 05:33:00,68.4,64.4,29.91,East,90,5.0,11.0,87,0.00,,,0.00,meteohub,2013-03-31 10:33:00,
2013-03-31 05:38:00,68.2,64.2,29.92,East,90,8.0,9.0,87,0.00,,,0.00,meteohub,2013-03-31 10:38:00,
2013-03-31 05:43:00,68.2,64.4,29.92,NE,45,6.0,8.0,88,0.00,,,0.00,meteohub,2013-03-31 10:43:00,
2013-03-31 05:48:00,68.0,64.4,29.92,NNE,23,2.0,8.0,88,0.00,,,0.00,meteohub,2013-03-31 10:48:00,
2013-03-31 05:53:00,67.8,64.4,29.92,NE,45,4.0,8.0,89,0.00,,,0.00,meteohub,2013-03-31 10:53:00,
2013-03-31 05:58:00,67.6,64.2,29.92,East,90,6.0,8.0,89,0.00,,,0.00,meteohub,2013-03-31 10:58:00,
2013-03-31 06:03:00,67.6,64.2,29.92,East,90,3.0,7.0,89,0.00,,,0.00,meteohub,2013-03-31 11:03:00,
2013-03-31 06:08:00,67.6,64.2,29.92,NE,45,4.0,7.0,89,0.00,,,0.00,meteohub,2013-03-31 11:08:00,
2013-03-31 06:13:00,67.6,64.2,29.93,NE,45,8.0,8.0,89,0.00,,,0.00,meteohub,2013-03-31 11:13:00,
2013-03-31 06:18:00,67.8,64.4,29.93,East,90,8.0,8.0,89,0.00,,,0.00,meteohub,2013-03-31 11:18:00,
2013-03-31 06:23:00,67.6,64.2,29.93,NE,45,4.0,8.0,89,0.00,,,0.00,meteohub,2013-03-31 11:23:00,
2013-03-31 06:28:00,67.6,64.2,29.93,NE,45,5.0,8.0,89,0.00,,,0.00,meteohub,2013-03-31 11:28:00,
2013-03-31 06:33:00,67.6,64.2,29.93,NE,45,2.0,8.0,89,0.00,,,0.00,meteohub,2013-03-31 11:33:00,
2013-03-31 06:38:00,67.5,64.0,29.93,NE,45,4.0,8.0,89,0.00,,,0.00,meteohub,2013-03-31 11:38:00,
2013-03-31 06:43:00,67.3,63.9,29.93,ENE,68,6.0,8.0,89,0.00,,,0.00,meteohub,2013-03-31 11:43:00,
2013-03-31 06:48:00,67.5,64.0,29.93,NE,45,4.0,6.0,89,0.00,,,0.00,meteohub,2013-03-31 11:48:00,
2013-03-31 06:53:00,67.3,63.9,29.93,NE,45,4.0,6.0,89,0.00,,,0.00,meteohub,2013-03-31 11:53:00,
2013-03-31 06:58:00,67.3,63.9,29.94,West,270,2.0,7.0,89,0.00,,,0.00,meteohub,2013-03-31 11:58:00,
2013-03-31 07:04:00,67.3,63.9,29.94,East,90,3.0,7.0,89,0.00,,,0.00,meteohub,2013-03-31 12:04:00,
2013-03-31 07:09:00,67.5,64.0,29.94,East,90,4.0,7.0,89,0.00,,,0.00,meteohub,2013-03-31 12:09:00,
2013-03-31 07:14:00,67.5,64.0,29.94,East,90,6.0,6.0,89,0.00,,,0.00,meteohub,2013-03-31 12:14:00,
2013-03-31 07:19:00,67.3,63.9,29.95,East,90,4.0,7.0,89,0.00,,,0.00,meteohub,2013-03-31 12:19:00,
2013-03-31 07:24:00,67.5,64.0,29.94,East,90,8.0,8.0,89,0.00,,,0.00,meteohub,2013-03-31 12:24:00,
2013-03-31 07:29:00,67.5,64.0,29.94,NE,45,8.0,8.0,89,0.00,,,0.00,meteohub,2013-03-31 12:29:00,
2013-03-31 07:34:00,67.5,63.9,29.95,South,180,2.0,8.0,88,0.00,,,0.00,meteohub,2013-03-31 12:34:00,
2013-03-31 07:39:00,67.5,63.9,29.95,ENE,68,2.0,8.0,88,0.00,,,0.00,meteohub,2013-03-31 12:39:00,
2013-03-31 07:44:00,67.5,63.9,29.95,ENE,68,5.0,8.0,88,0.00,,,0.00,meteohub,2013-03-31 12:44:00,
2013-03-31 07:49:00,67.5,63.9,29.96,West,270,2.0,6.0,88,0.00,,,0.00,meteohub,2013-03-31 12:49:00,
2013-03-31 07:55:00,67.3,63.7,29.96,West,270,0.0,5.0,88,0.00,,,0.00,meteohub,2013-03-31 12:55:00,
2013-03-31 08:00:00,67.1,63.7,29.95,NE,45,4.0,5.0,89,0.00,,,0.00,meteohub,2013-03-31 13:00:00,
2013-03-31 08:05:00,67.1,63.7,29.95,East,90,2.0,5.0,89,0.00,,,0.00,meteohub,2013-03-31 13:05:00,
2013-03-31 08:10:00,67.3,63.9,29.96,NW,315,2.0,5.0,89,0.00,,,0.00,meteohub,2013-03-31 13:10:00,
2013-03-31 08:15:00,67.5,64.0,29.96,NE,45,2.0,5.0,89,0.00,,,0.00,meteohub,2013-03-31 13:15:00,
2013-03-31 08:20:00,67.8,64.2,29.96,East,90,3.0,5.0,88,0.00,,,0.00,meteohub,2013-03-31 13:20:00,
2013-03-31 08:25:00,68.0,64.0,29.96,ENE,68,3.0,3.0,87,0.00,,,0.00,meteohub,2013-03-31 13:25:00,
2013-03-31 08:30:00,68.2,64.2,29.95,East,90,3.0,4.0,87,0.00,,,0.00,meteohub,2013-03-31 13:30:00,
2013-03-31 08:35:00,68.5,64.2,29.96,North,0,1.0,4.0,86,0.00,,,0.00,meteohub,2013-03-31 13:35:00,
2013-03-31 08:40:00,69.1,64.8,29.97,NW,315,1.0,4.0,86,0.00,,,0.00,meteohub,2013-03-31 13:40:00,
2013-03-31 08:45:00,69.8,64.8,29.97,NE,45,2.0,4.0,84,0.00,,,0.00,meteohub,2013-03-31 13:45:00,
2013-03-31 08:50:00,70.0,64.2,29.96,East,90,4.0,5.0,82,0.00,,,0.00,meteohub,2013-03-31 13:50:00,
2013-03-31 08:55:00,70.2,64.4,29.96,SE,135,7.0,7.0,82,0.00,,,0.00,meteohub,2013-03-31 13:55:00,
2013-03-31 09:00:00,70.5,64.8,29.97,SW,225,5.0,7.0,82,0.00,,,0.00,meteohub,2013-03-31 14:00:00,
2013-03-31 09:06:00,70.7,64.6,29.97,SE,135,5.0,7.0,81,0.00,,,0.00,meteohub,2013-03-31 14:06:00,
2013-03-31 09:11:00,71.4,64.6,29.97,SE,135,2.0,7.0,79,0.00,,,0.00,meteohub,2013-03-31 14:11:00,
2013-03-31 09:16:00,71.8,63.9,29.97,SE,135,6.0,6.0,76,0.00,,,0.00,meteohub,2013-03-31 14:16:00,
2013-03-31 09:21:00,71.8,64.2,29.97,SE,135,3.0,6.0,77,0.00,,,0.00,meteohub,2013-03-31 14:21:00,
2013-03-31 09:26:00,73.0,64.6,29.97,ENE,68,5.0,6.0,75,0.00,,,0.00,meteohub,2013-03-31 14:26:00,
2013-03-31 09:32:00,73.6,65.1,29.97,SE,135,7.0,7.0,75,0.00,,,0.00,meteohub,2013-03-31 14:32:00,
2013-03-31 09:37:00,73.8,64.6,29.97,SE,135,4.0,8.0,73,0.00,,,0.00,meteohub,2013-03-31 14:37:00,
2013-03-31 09:42:00,74.8,65.1,29.97,NE,45,4.0,8.0,72,0.00,,,0.00,meteohub,2013-03-31 14:42:00,
2013-03-31 09:47:00,75.2,63.9,29.97,NE,45,5.0,8.0,68,0.00,,,0.00,meteohub,2013-03-31 14:47:00,
2013-03-31 09:52:00,75.6,64.2,29.97,East,90,4.0,8.0,68,0.00,,,0.00,meteohub,2013-03-31 14:52:00,
2013-03-31 09:57:00,76.5,64.2,29.97,East,90,10.0,10.0,66,0.00,,,0.00,meteohub,2013-03-31 14:57:00,
2013-03-31 10:02:00,76.6,63.5,29.97,SE,135,9.0,11.0,64,0.00,,,0.00,meteohub,2013-03-31 15:02:00,
2013-03-31 10:07:00,76.8,63.7,29.97,East,90,8.0,11.0,64,0.00,,,0.00,meteohub,2013-03-31 15:07:00,
2013-03-31 10:12:00,77.7,63.7,29.97,SSE,158,8.0,13.0,62,0.00,,,0.00,meteohub,2013-03-31 15:12:00,
2013-03-31 10:17:00,78.3,63.3,29.97,WSW,248,7.0,13.0,60,0.00,,,0.00,meteohub,2013-03-31 15:17:00,
2013-03-31 10:22:00,79.0,63.0,29.97,SE,135,7.0,10.0,58,0.00,,,0.00,meteohub,2013-03-31 15:22:00,
2013-03-31 10:27:00,77.9,63.0,29.97,ENE,68,5.0,10.0,60,0.00,,,0.00,meteohub,2013-03-31 15:27:00,
2013-03-31 10:32:00,77.4,63.3,29.96,East,90,5.0,10.0,62,0.00,,,0.00,meteohub,2013-03-31 15:32:00,
2013-03-31 10:37:00,77.4,62.8,29.96,East,90,7.0,10.0,61,0.00,,,0.00,meteohub,2013-03-31 15:37:00,
2013-03-31 10:42:00,76.8,62.8,29.96,East,90,5.0,9.0,62,0.00,,,0.00,meteohub,2013-03-31 15:42:00,
2013-03-31 10:47:00,77.2,62.2,29.96,ENE,68,6.0,9.0,60,0.00,,,0.00,meteohub,2013-03-31 15:47:00,
2013-03-31 10:52:00,77.0,62.1,29.96,NE,45,4.0,9.0,60,0.00,,,0.00,meteohub,2013-03-31 15:52:00,
2013-03-31 10:57:00,76.8,62.8,29.96,East,90,8.0,8.0,62,0.00,,,0.00,meteohub,2013-03-31 15:57:00,
2013-03-31 11:02:00,76.6,62.2,29.97,ESE,113,5.0,8.0,61,0.00,,,0.00,meteohub,2013-03-31 16:02:00,
2013-03-31 11:07:00,77.5,62.6,29.96,East,90,5.0,8.0,60,0.00,,,0.00,meteohub,2013-03-31 16:07:00,
2013-03-31 11:12:00,77.9,62.4,29.96,NE,45,4.0,8.0,59,0.00,,,0.00,meteohub,2013-03-31 16:12:00,
2013-03-31 11:17:00,77.5,62.1,29.96,East,90,7.0,7.0,59,0.00,,,0.00,meteohub,2013-03-31 16:17:00,
2013-03-31 11:22:00,77.5,62.6,29.96,East,90,7.0,8.0,60,0.00,,,0.00,meteohub,2013-03-31 16:22:00,
2013-03-31 11:27:00,78.1,63.1,29.96,NE,45,8.0,8.0,60,0.00,,,0.00,meteohub,2013-03-31 16:27:00,
2013-03-31 11:32:00,77.9,63.0,29.98,SE,135,2.0,8.0,60,0.00,,,0.00,meteohub,2013-03-31 16:32:00,
2013-03-31 11:37:00,77.9,62.4,29.97,South,180,2.0,8.0,59,0.00,,,0.00,meteohub,2013-03-31 16:37:00,
2013-03-31 11:42:00,77.9,62.4,29.97,NE,45,4.0,8.0,59,0.00,,,0.00,meteohub,2013-03-31 16:42:00,
2013-03-31 11:47:00,78.8,62.8,29.97,North,0,3.0,5.0,58,0.00,,,0.00,meteohub,2013-03-31 16:47:00,
2013-03-31 12:00:00,81.0,61.2,29.98,South,180,5.0,5.0,51,0.00,,,0.00,meteohub,2013-03-31 17:00:00,
2013-03-31 12:05:00,79.5,61.9,29.99,SW,225,4.0,5.0,55,0.00,,,0.00,meteohub,2013-03-31 17:05:00,
2013-03-31 12:10:00,79.0,61.5,29.99,NW,315,4.0,5.0,55,0.00,,,0.00,meteohub,2013-03-31 17:10:00,
2013-03-31 12:16:00,79.0,61.9,30.00,SW,225,6.0,8.0,56,0.00,,,0.00,meteohub,2013-03-31 17:16:00,
2013-03-31 12:21:00,78.8,64.2,30.00,NNW,338,4.0,8.0,61,0.00,,,0.00,meteohub,2013-03-31 17:21:00,
2013-03-31 12:26:00,78.4,64.8,29.99,West,270,6.0,8.0,63,0.00,,,0.00,meteohub,2013-03-31 17:26:00,
2013-03-31 12:31:00,78.6,64.9,29.99,WSW,248,4.0,8.0,63,0.00,,,0.00,meteohub,2013-03-31 17:31:00,
2013-03-31 12:36:00,78.6,64.6,29.99,East,90,2.0,8.0,62,0.00,,,0.00,meteohub,2013-03-31 17:36:00,
2013-03-31 12:41:00,78.4,64.4,29.99,West,270,3.0,6.0,62,0.00,,,0.00,meteohub,2013-03-31 17:41:00,
2013-03-31 12:46:00,78.8,64.2,29.99,West,270,4.0,4.0,61,0.00,,,0.00,meteohub,2013-03-31 17:46:00,
2013-03-31 12:51:00,78.3,64.6,29.99,SW,225,2.0,4.0,63,0.00,,,0.00,meteohub,2013-03-31 17:51:00,
2013-03-31 12:57:00,77.7,64.0,29.99,NNW,338,3.0,4.0,63,0.00,,,0.00,meteohub,2013-03-31 17:57:00,
2013-03-31 13:02:00,77.2,64.6,29.99,SW,225,2.0,4.0,65,0.00,,,0.00,meteohub,2013-03-31 18:02:00,
2013-03-31 13:07:00,76.1,65.1,30.00,SW,225,2.0,3.0,69,0.00,,,0.00,meteohub,2013-03-31 18:07:00,
2013-03-31 13:12:00,74.8,66.4,30.01,WSW,248,2.0,3.0,75,0.00,,,0.00,meteohub,2013-03-31 18:12:00,
2013-03-31 13:17:00,72.5,66.4,30.01,West,270,4.0,4.0,81,0.00,,,0.00,meteohub,2013-03-31 18:17:00,
2013-03-31 13:22:00,70.3,66.0,30.00,SW,225,3.0,4.0,86,0.00,,,0.00,meteohub,2013-03-31 18:22:00,
2013-03-31 13:27:00,68.4,64.9,29.99,NE,45,3.0,6.0,89,0.00,,,0.00,meteohub,2013-03-31 18:27:00,
2013-03-31 13:32:00,68.0,65.8,29.99,East,90,3.0,6.0,93,0.00,,,0.00,meteohub,2013-03-31 18:32:00,
2013-03-31 13:37:00,70.5,69.1,29.98,North,0,3.0,6.0,95,0.00,,,0.00,meteohub,2013-03-31 18:37:00,
2013-03-31 13:42:00,73.4,72.1,29.98,NE,45,4.0,4.0,96,0.00,,,0.00,meteohub,2013-03-31 18:42:00,
2013-03-31 13:47:00,74.8,72.7,29.98,East,90,2.0,4.0,93,0.00,,,0.00,meteohub,2013-03-31 18:47:00,
2013-03-31 13:52:00,76.8,73.4,29.99,SW,225,2.0,4.0,89,0.00,,,0.00,meteohub,2013-03-31 18:52:00,
2013-03-31 13:57:00,80.6,74.3,29.98,NW,315,2.0,4.0,81,0.00,,,0.00,meteohub,2013-03-31 18:57:00,
2013-03-31 14:02:00,80.6,72.0,29.98,NW,315,2.0,2.0,75,0.00,,,0.00,meteohub,2013-03-31 19:02:00,
2013-03-31 14:08:00,79.5,70.2,29.98,West,270,2.0,3.0,73,0.00,,,0.00,meteohub,2013-03-31 19:08:00,
2013-03-31 14:13:00,78.4,69.1,29.97,NE,45,3.0,3.0,73,0.00,,,0.00,meteohub,2013-03-31 19:13:00,
2013-03-31 14:18:00,76.1,67.6,29.97,NE,45,4.0,4.0,75,0.00,,,0.00,meteohub,2013-03-31 19:18:00,
2013-03-31 14:23:00,75.0,68.4,29.98,NE,45,2.0,4.0,80,0.00,,,0.00,meteohub,2013-03-31 19:23:00,
2013-03-31 14:28:00,74.1,67.1,29.97,NE,45,2.0,4.0,79,0.00,,,0.00,meteohub,2013-03-31 19:28:00,
2013-03-31 14:33:00,73.9,67.1,29.97,NW,315,2.0,4.0,79,0.00,,,0.00,meteohub,2013-03-31 19:33:00,
2013-03-31 14:38:00,74.3,68.0,29.98,NE,45,2.0,4.0,81,0.00,,,0.00,meteohub,2013-03-31 19:38:00,
2013-03-31 14:43:00,74.1,68.0,29.98,NE,45,2.0,3.0,81,0.00,,,0.00,meteohub,2013-03-31 19:43:00,
2013-03-31 14:48:00,73.8,68.0,29.98,NE,45,2.0,3.0,82,0.00,,,0.00,meteohub,2013-03-31 19:48:00,
2013-03-31 14:53:00,73.6,66.7,29.98,NE,45,1.0,2.0,79,0.00,,,0.00,meteohub,2013-03-31 19:53:00,
2013-03-31 14:58:00,74.1,68.2,29.97,West,270,2.0,2.0,82,0.00,,,0.00,meteohub,2013-03-31 19:58:00,
2013-03-31 15:03:00,74.3,68.4,29.97,West,270,3.0,3.0,82,0.00,,,0.00,meteohub,2013-03-31 20:03:00,
2013-03-31 15:08:00,74.7,69.1,29.96,NW,315,2.0,4.0,83,0.00,,,0.00,meteohub,2013-03-31 20:08:00,
2013-03-31 15:14:00,75.0,69.4,29.95,NW,315,2.0,4.0,83,0.00,,,0.00,meteohub,2013-03-31 20:14:00,
2013-03-31 15:19:00,75.4,69.1,29.95,NW,315,2.0,4.0,81,0.00,,,0.00,meteohub,2013-03-31 20:19:00,
2013-03-31 15:24:00,75.4,68.7,29.95,West,270,2.0,3.0,80,0.00,,,0.00,meteohub,2013-03-31 20:24:00,
2013-03-31 15:29:00,75.4,68.7,29.95,East,90,1.0,3.0,80,0.00,,,0.00,meteohub,2013-03-31 20:29:00,
2013-03-31 15:34:00,74.8,68.2,29.95,NE,45,3.0,3.0,80,0.00,,,0.00,meteohub,2013-03-31 20:34:00,
2013-03-31 15:39:00,73.8,68.5,29.95,NE,45,3.0,4.0,84,0.00,,,0.00,meteohub,2013-03-31 20:39:00,
2013-03-31 15:44:00,73.2,68.2,29.95,NE,45,2.0,4.0,84,0.00,,,0.00,meteohub,2013-03-31 20:44:00,
2013-03-31 15:49:00,72.7,67.6,29.95,NE,45,2.0,4.0,84,0.00,,,0.00,meteohub,2013-03-31 20:49:00,
2013-03-31 15:54:00,72.5,67.8,29.95,NE,45,2.0,4.0,85,0.00,,,0.00,meteohub,2013-03-31 20:54:00,
2013-03-31 15:59:00,72.3,67.6,29.94,West,270,1.0,4.0,85,0.00,,,0.00,meteohub,2013-03-31 20:59:00,
2013-03-31 16:04:00,72.3,67.8,29.94,East,90,1.0,4.0,86,0.00,,,0.00,meteohub,2013-03-31 21:04:00,
2013-03-31 16:09:00,72.3,67.8,29.94,NW,315,1.0,4.0,86,0.00,,,0.00,meteohub,2013-03-31 21:09:00,
2013-03-31 16:14:00,72.3,68.5,29.94,East,90,1.0,2.0,88,0.00,,,0.00,meteohub,2013-03-31 21:14:00,
2013-03-31 16:19:00,72.0,68.5,29.94,East,90,4.0,4.0,89,0.00,,,0.00,meteohub,2013-03-31 21:19:00,
2013-03-31 16:24:00,71.6,68.9,29.94,NE,45,4.0,4.0,91,0.00,,,0.00,meteohub,2013-03-31 21:24:00,
2013-03-31 16:29:00,71.1,68.5,29.93,NE,45,4.0,6.0,92,0.00,,,0.00,meteohub,2013-03-31 21:29:00,
2013-03-31 16:35:00,71.1,68.5,29.92,NE,45,4.0,7.0,92,0.00,,,0.00,meteohub,2013-03-31 21:35:00,
2013-03-31 16:40:00,71.6,68.5,29.92,NNE,23,2.0,7.0,90,0.00,,,0.00,meteohub,2013-03-31 21:40:00,
2013-03-31 16:45:00,71.8,68.4,29.92,East,90,6.0,7.0,89,0.00,,,0.00,meteohub,2013-03-31 21:45:00,
2013-03-31 16:50:00,72.7,68.9,29.93,East,90,5.0,6.0,88,0.00,,,0.00,meteohub,2013-03-31 21:50:00,
2013-03-31 16:55:00,74.1,69.6,29.93,NE,45,6.0,6.0,86,0.00,,,0.00,meteohub,2013-03-31 21:55:00,
2013-03-31 17:00:00,75.7,69.4,29.93,North,0,5.0,9.0,81,0.00,,,0.00,meteohub,2013-03-31 22:00:00,
2013-03-31 17:05:00,77.5,68.9,29.92,East,90,4.0,9.0,75,0.00,,,0.00,meteohub,2013-03-31 22:05:00,
2013-03-31 17:10:00,79.3,69.1,29.91,NE,45,3.0,8.0,71,0.00,,,0.00,meteohub,2013-03-31 22:10:00,
2013-03-31 17:15:00,81.3,68.9,29.92,NNE,23,4.0,6.0,66,0.00,,,0.00,meteohub,2013-03-31 22:15:00,
2013-03-31 17:20:00,83.1,68.7,29.91,NE,45,1.0,6.0,62,0.00,,,0.00,meteohub,2013-03-31 22:20:00,
2013-03-31 17:26:00,84.2,67.8,29.91,North,0,3.0,6.0,58,0.00,,,0.00,meteohub,2013-03-31 22:26:00,
2013-03-31 17:31:00,85.1,67.6,29.92,NE,45,4.0,5.0,56,0.00,,,0.00,meteohub,2013-03-31 22:31:00,
2013-03-31 17:36:00,87.1,68.9,29.92,North,0,2.0,5.0,55,0.00,,,0.00,meteohub,2013-03-31 22:36:00,
2013-03-31 17:42:00,88.0,67.6,29.93,North,0,4.0,4.0,51,0.00,,,0.00,meteohub,2013-03-31 22:42:00,
2013-03-31 17:47:00,86.5,67.5,29.92,NW,315,2.0,4.0,53,0.00,,,0.00,meteohub,2013-03-31 22:47:00,
2013-03-31 17:52:00,86.5,67.5,29.92,North,0,2.0,4.0,53,0.00,,,0.00,meteohub,2013-03-31 22:52:00,
2013-03-31 17:57:00,86.7,66.9,29.92,West,270,3.0,4.0,52,0.00,,,0.00,meteohub,2013-03-31 22:57:00,
2013-03-31 18:02:00,85.8,67.3,29.92,NE,45,2.0,4.0,54,0.00,,,0.00,meteohub,2013-03-31 23:02:00,
2013-03-31 18:07:00,85.6,67.6,29.92,NW,315,2.0,4.0,55,0.00,,,0.00,meteohub,2013-03-31 23:07:00,
2013-03-31 18:12:00,86.4,66.7,29.92,NW,315,1.0,3.0,52,0.00,,,0.00,meteohub,2013-03-31 23:12:00,
2013-03-31 18:17:00,87.1,66.2,29.93,NE,45,1.0,3.0,50,0.00,,,0.00,meteohub,2013-03-31 23:17:00,
2013-03-31 18:22:00,87.8,66.2,29.93,WSW,248,2.0,3.0,49,0.00,,,0.00,meteohub,2013-03-31 23:22:00,
2013-03-31 18:28:00,87.1,66.2,29.92,NE,45,2.0,3.0,50,0.00,,,0.00,meteohub,2013-03-31 23:28:00,
2013-03-31 18:33:00,86.7,66.4,29.93,West,270,2.0,3.0,51,0.00,,,0.00,meteohub,2013-03-31 23:33:00,
2013-03-31 18:38:00,85.8,65.7,29.93,North,0,2.0,3.0,51,0.00,,,0.00,meteohub,2013-03-31 23:38:00,
2013-03-31 18:43:00,84.0,65.7,29.92,NW,315,2.0,3.0,54,0.00,,,0.00,meteohub,2013-03-31 23:43:00,
2013-03-31 18:48:00,83.1,65.3,29.92,West,270,2.0,3.0,55,0.00,,,0.00,meteohub,2013-03-31 23:48:00,
2013-03-31 18:53:00,82.6,64.8,29.92,NW,315,2.0,3.0,55,0.00,,,0.00,meteohub,2013-03-31 23:53:00,
2013-03-31 18:58:00,81.9,64.0,29.92,NW,315,2.0,3.0,55,0.00,,,0.00,meteohub,2013-03-31 23:58:00,
2013-03-31 19:03:00,81.0,63.9,29.92,West,270,2.0,3.0,56,0.00,,,0.00,meteohub,2013-04-01 00:03:00,
2013-03-31 19:08:00,79.5,63.5,29.92,NW,315,2.0,3.0,58,0.00,,,0.00,meteohub,2013-04-01 00:08:00,
2013-03-31 19:13:00,78.6,64.6,29.92,NW,315,2.0,3.0,62,0.00,,,0.00,meteohub,2013-04-01 00:13:00,
2013-03-31 19:18:00,78.4,65.3,29.92,NW,315,0.0,2.0,64,0.00,,,0.00,meteohub,2013-04-01 00:18:00,
2013-03-31 19:23:00,78.1,64.9,29.92,SE,135,0.0,2.0,64,0.00,,,0.00,meteohub,2013-04-01 00:23:00,
2013-03-31 19:28:00,77.2,64.6,29.92,SE,135,0.0,2.0,65,0.00,,,0.00,meteohub,2013-04-01 00:28:00,
2013-03-31 19:33:00,75.2,64.4,29.92,SE,135,0.0,1.0,69,0.00,,,0.00,meteohub,2013-04-01 00:33:00,
2013-03-31 19:38:00,73.4,64.2,29.92,SE,135,0.0,1.0,73,0.00,,,0.00,meteohub,2013-04-01 00:38:00,
2013-03-31 19:44:00,72.0,63.7,29.93,NE,45,2.0,0.0,75,0.00,,,0.00,meteohub,2013-04-01 00:44:00,
2013-03-31 19:49:00,70.7,64.2,29.92,NE,45,2.0,2.0,80,0.00,,,0.00,meteohub,2013-04-01 00:49:00,
2013-03-31 19:54:00,70.0,63.9,29.93,NE,45,0.0,2.0,81,0.00,,,0.00,meteohub,2013-04-01 00:54:00,
2013-03-31 19:59:00,69.3,63.9,29.93,NE,45,2.0,2.0,83,0.00,,,0.00,meteohub,2013-04-01 00:59:00,
2013-03-31 20:04:00,68.7,63.7,29.92,NE,45,0.0,2.0,84,0.00,,,0.00,meteohub,2013-04-01 01:04:00,
2013-03-31 20:09:00,67.8,63.1,29.93,NE,45,0.0,2.0,85,0.00,,,0.00,meteohub,2013-04-01 01:09:00,
2013-03-31 20:14:00,66.7,62.4,29.93,NE,45,0.0,2.0,86,0.00,,,0.00,meteohub,2013-04-01 01:14:00,
2013-03-31 20:19:00,66.2,61.9,29.93,NE,45,0.0,1.0,86,0.00,,,0.00,meteohub,2013-04-01 01:19:00,
2013-03-31 20:24:00,65.5,61.9,29.93,NE,45,0.0,1.0,88,0.00,,,0.00,meteohub,2013-04-01 01:24:00,
2013-03-31 20:29:00,64.9,61.7,29.93,NE,45,0.0,1.0,89,0.00,,,0.00,meteohub,2013-04-01 01:29:00,
2013-03-31 20:34:00,64.4,61.2,29.94,NE,45,0.0,1.0,89,0.00,,,0.00,meteohub,2013-04-01 01:34:00,
2013-03-31 20:39:00,64.0,61.0,29.94,SW,225,1.0,0.0,90,0.00,,,0.00,meteohub,2013-04-01 01:39:00,
2013-03-31 20:44:00,63.7,60.6,29.94,East,90,0.0,1.0,90,0.00,,,0.00,meteohub,2013-04-01 01:44:00,
2013-03-31 20:49:00,63.5,61.2,29.94,NE,45,1.0,1.0,92,0.00,,,0.00,meteohub,2013-04-01 01:49:00,
2013-03-31 20:54:00,63.1,60.8,29.94,NE,45,1.0,2.0,92,0.00,,,0.00,meteohub,2013-04-01 01:54:00,
2013-03-31 20:59:00,63.0,61.0,29.94,NE,45,2.0,2.0,93,0.00,,,0.00,meteohub,2013-04-01 01:59:00,
2013-03-31 21:04:00,62.6,60.6,29.95,NE,45,2.0,2.0,93,0.00,,,0.00,meteohub,2013-04-01 02:04:00,
2013-03-31 21:10:00,62.6,60.6,29.95,NE,45,1.0,2.0,93,0.00,,,0.00,meteohub,2013-04-01 02:10:00,
2013-03-31 21:15:00,62.2,60.4,29.95,NE,45,0.0,2.0,94,0.00,,,0.00,meteohub,2013-04-01 02:15:00,
2013-03-31 21:20:00,62.1,60.6,29.96,NE,45,1.0,2.0,95,0.00,,,0.00,meteohub,2013-04-01 02:20:00,
2013-03-31 21:25:00,61.9,60.4,29.96,NE,45,0.0,2.0,95,0.00,,,0.00,meteohub,2013-04-01 02:25:00,
2013-03-31 21:30:00,61.7,60.3,29.96,NE,45,0.0,2.0,95,0.00,,,0.00,meteohub,2013-04-01 02:30:00,
2013-03-31 21:35:00,61.3,59.9,29.96,East,90,0.0,2.0,95,0.00,,,0.00,meteohub,2013-04-01 02:35:00,
2013-03-31 21:40:00,61.2,59.7,29.96,East,90,0.0,2.0,95,0.00,,,0.00,meteohub,2013-04-01 02:40:00,
2013-03-31 21:45:00,61.0,59.5,29.97,East,90,0.0,2.0,95,0.00,,,0.00,meteohub,2013-04-01 02:45:00,
2013-03-31 21:50:00,60.8,59.4,29.97,East,90,0.0,0.0,95,0.00,,,0.00,meteohub,2013-04-01 02:50:00,
2013-03-31 21:55:00,60.8,59.4,29.97,East,90,1.0,0.0,95,0.00,,,0.00,meteohub,2013-04-01 02:55:00,
2013-03-31 22:00:00,60.6,59.5,29.97,East,90,0.0,1.0,96,0.00,,,0.00,meteohub,2013-04-01 03:00:00,
2013-03-31 22:05:00,60.3,59.2,29.98,East,90,0.0,1.0,96,0.00,,,0.00,meteohub,2013-04-01 03:05:00,
2013-03-31 22:10:00,60.3,59.2,29.98,East,90,0.0,1.0,96,0.00,,,0.00,meteohub,2013-04-01 03:10:00,
2013-03-31 22:15:00,60.3,59.4,29.99,SE,135,0.0,2.0,97,0.00,,,0.00,meteohub,2013-04-01 03:15:00,
2013-03-31 22:20:00,60.3,59.4,29.99,NE,45,2.0,2.0,97,0.00,,,0.00,meteohub,2013-04-01 03:20:00,
2013-03-31 22:26:00,60.3,59.4,29.99,NE,45,2.0,2.0,97,0.00,,,0.00,meteohub,2013-04-01 03:26:00,
2013-03-31 22:31:00,59.9,59.0,30.00,NE,45,2.0,2.0,97,0.00,,,0.00,meteohub,2013-04-01 03:31:00,
2013-03-31 22:36:00,59.7,58.8,30.00,NE,45,0.0,2.0,97,0.00,,,0.00,meteohub,2013-04-01 03:36:00,
2013-03-31 22:41:00,59.7,58.8,30.00,NE,45,1.0,2.0,97,0.00,,,0.00,meteohub,2013-04-01 03:41:00,
2013-03-31 22:46:00,59.5,58.6,30.00,NE,45,0.0,2.0,97,0.00,,,0.00,meteohub,2013-04-01 03:46:00,
2013-03-31 22:52:00,59.4,58.5,30.01,NE,45,0.0,1.0,97,0.00,,,0.00,meteohub,2013-04-01 03:52:00,
2013-03-31 22:57:00,59.2,58.3,30.01,NE,45,2.0,2.0,97,0.00,,,0.00,meteohub,2013-04-01 03:57:00,
2013-03-31 23:00:00,59.2,58.3,30.01,NE,45,0.0,2.0,97,0.00,,,0.00,meteohub,2013-04-01 04:00:00,
2013-03-31 23:01:00,59.2,58.3,30.01,NE,45,0.0,2.0,97,0.00,,,0.00,meteohub,2013-04-01 04:01:00,
2013-03-31 23:06:00,59.2,58.3,30.01,NE,45,0.0,2.0,97,0.00,,,0.00,meteohub,2013-04-01 04:06:00,
2013-03-31 23:12:00,59.2,58.6,30.01,NE,45,0.0,2.0,98,0.00,,,0.00,meteohub,2013-04-01 04:12:00,
2013-03-31 23:17:00,59.4,58.8,30.01,West,270,0.0,1.0,98,0.00,,,0.00,meteohub,2013-04-01 04:17:00,
2013-03-31 23:22:00,60.1,59.7,30.01,SW,225,1.0,1.0,99,0.00,,,0.00,meteohub,2013-04-01 04:22:00,
2013-03-31 23:27:00,60.4,60.1,30.01,ENE,68,2.0,2.0,99,0.00,,,0.00,meteohub,2013-04-01 04:27:00,
2013-03-31 23:32:00,61.0,60.4,30.01,North,0,1.0,2.0,98,0.00,,,0.00,meteohub,2013-04-01 04:32:00,
2013-03-31 23:37:00,61.2,60.6,30.02,NW,315,2.0,3.0,98,0.00,,,0.00,meteohub,2013-04-01 04:37:00,
2013-03-31 23:42:00,61.2,60.6,30.02,North,0,2.0,3.0,98,0.00,,,0.00,meteohub,2013-04-01 04:42:00,
2013-03-31 23:47:00,61.3,60.8,30.02,SW,225,0.0,3.0,98,0.00,,,0.00,meteohub,2013-04-01 04:47:00,
2013-03-31 23:52:00,61.5,61.0,30.02,NW,315,1.0,2.0,98,0.00,,,0.00,meteohub,2013-04-01 04:52:00,
2013-03-31 23:57:00,61.5,61.0,30.02,East,90,0.0,2.0,98,0.00,,,0.00,meteohub,2013-04-01 04:57:00,